Volver al catálogo

STARLINK-3305

ActivoComunicacionesVLEO
NORAD 50166·PAYLOAD·🇺🇸 United States

Lanzado Dec 18, 2021 desde Vandenberg Space Force Base

Loading…

Próximos Pases (próximas 24 horas)

TLE

ActualizadoSource: CelesTrak SupGP

Época: Sep 14, 2026, 20:15 UTC

1 50166C 21125L   26257.84423611 -.00036556  00000+0 -11758-2 0  2577
2 50166  53.1569 108.1168 0001352  89.2279   2.7634 15.31712278    12

Sigue STARLINK-3305 en tiempo real con AllMySat

Download on the App Store